Weather home | Your neighborhood | Marine | Radar | Hurricane | Almanac

Daily weather history


Statistical History for Friday, April 21, 2017

St. Petersburg Airport, FL


  Actual Average Record
Temperature
Mean Temperature -  
Max Temperature 81 °F 89 °F (1964)
Min Temperature 66 °F 50 °F (1953)
Cooling Degree Days    
Growing Degree Days 26 (Base - )  
Moisture
Dew Point   
Average Humidity    
Maximum Humidity    
Minimum Humidity    
Precipitation
Precipitation - - ()
Wind
Wind Speed   
Max Wind Speed   
Max Gust Speed   
Visibility   
Events   
Averages and records for this station are not official NWS values.
Key: T is trace of precipitation, MM is missing value
Source: NWS Daily Summary
Seasonal Weather Averages
Time(EDT)TemperatureDew PointHumidity Sea Level Pressure Visibility Wind DirectionWind SpeedGust SpeedPrecipitationEventsConditions
12:53 AM 72.0 °F 59.0 °F 64% 30.09 in 10.0 miles ESE 13.8 mph - N/A   Clear
1:53 AM 71.1 °F 59.0 °F 66% 30.07 in 10.0 miles ESE 9.2 mph - N/A   Clear
2:53 AM 70.0 °F 57.9 °F 65% 30.06 in 10.0 miles ESE 9.2 mph - N/A   Clear
3:53 AM 69.1 °F 59.0 °F 70% 30.05 in 10.0 miles ESE 8.1 mph - N/A   Clear
4:53 AM 69.1 °F 60.1 °F 73% 30.04 in 10.0 miles ESE 9.2 mph - N/A   Clear
5:53 AM 68.0 °F 60.1 °F 76% 30.05 in 10.0 miles ESE 9.2 mph - N/A   Clear
6:53 AM 66.0 °F 60.1 °F 81% 30.06 in 10.0 miles ESE 3.5 mph - N/A   Clear
7:53 AM 70.0 °F 61.0 °F 73% 30.07 in 10.0 miles ESE 11.5 mph - N/A   Clear
8:53 AM 73.0 °F 60.1 °F 64% 30.07 in 10.0 miles ESE 13.8 mph - N/A   Clear
9:53 AM 75.9 °F 59.0 °F 56% 30.07 in 10.0 miles ESE 12.7 mph - N/A   Clear
10:53 AM 79.0 °F 57.9 °F 48% 30.06 in 10.0 miles ESE 15.0 mph 19.6 mph N/A   Clear
11:53 AM 81.0 °F 57.0 °F 44% 30.05 in 10.0 miles ESE 13.8 mph - N/A   Clear
12:53 PM 82.0 °F 55.0 °F 39% 30.02 in 10.0 miles ENE 9.2 mph - N/A   Partly Cloudy
1:53 PM 82.9 °F 55.0 °F 38% 30.00 in 10.0 miles NE 6.9 mph - N/A   Clear
2:53 PM 84.9 °F 55.9 °F 37% 29.97 in 10.0 miles North 6.9 mph - N/A   Scattered Clouds
3:53 PM 87.1 °F 53.1 °F 31% 29.94 in 10.0 miles NNE 6.9 mph - N/A   Clear
4:53 PM 87.1 °F 51.1 °F 29% 29.94 in 10.0 miles North 5.8 mph - N/A   Clear
5:15 PM 81.0 °F 61.0 °F 50% 29.93 in 10.0 miles NW 12.7 mph - N/A   Clear
5:53 PM 81.0 °F 62.1 °F 52% 29.93 in 10.0 miles NW 13.8 mph - N/A   Clear
6:53 PM 78.1 °F 61.0 °F 56% 29.94 in 10.0 miles WNW 11.5 mph - N/A   Clear
7:53 PM 75.0 °F 62.1 °F 64% 29.95 in 10.0 miles WNW 11.5 mph - N/A   Partly Cloudy
8:53 PM 73.0 °F 62.1 °F 68% 29.96 in 10.0 miles WNW 6.9 mph - N/A   Scattered Clouds
9:53 PM 73.0 °F 63.0 °F 71% 29.98 in 10.0 miles WNW 4.6 mph - N/A   Clear
10:53 PM 72.0 °F 63.0 °F 73% 30.00 in 10.0 miles West 4.6 mph - N/A   Partly Cloudy
11:53 PM 70.0 °F 62.1 °F 76% 29.99 in 10.0 miles WNW 3.5 mph - N/A   Clear
ADVERTISEMENT
Enter city or zip code to search weather conditions:


  • 490 First Avenue South
  • St. Petersburg, FL 33701
  • 727-893-8111